SL-8 DEB

Satellite information

Favourite Embed

Satellite Type and Status

DEBRISIN ORBIT

Key statistics

Satellite SL-8 DEB at a glance.

Uptime

13311

Days in orbit

Revolutions

≈ 14.6

Per day

Orbit

LEO

Low Earth Orbit

Inclination

74.1

Latest

Satellite identification and parameters

Extended collection of information and parameters for SL-8 DEB.

Object identification

Identified? True

Debris? True

Object name: SL-8 DEB

International designator: 1989-005C

Object number (NORAD): 19831

Object ID (CCSDS): 19831

Country: COMMONWEALTH OF INDEPENDENT STATES (CIS)

Current information (Y/N): Y

RCS size: SMALL

Orbital parameters

Period: 98.518 minutes

Inclination: 74.0643 deg

SMA: 7065.954 km

Apoapsis: 697.073 km

Periapsis: 678.564 km

RAAN: 114.002 deg

Eccentricy: 0.0013097

Argument of periapsis: 221.1955 deg

Mean anomaly: 202.6327 deg

Mean motion: 14.61660732 rev/day

Mean motion (dot): 0.00001491 rev/day2

B* drag term: 0.00030514 1/REarth

Two-line elements (TLE)

Creation date: July 6, 2025, 6:05 p.m.

Reference frame: TEME

Reference center: EARTH

Epoch: July 6, 2025, 2:42 p.m. UTC

TLE line 0: 0 SL-8 DEB

TLE line 1: 1 19831U 89005C 25187.61288784 .00001491 00000-0 30514-3 0 9992

TLE line 2: 2 19831 74.0643 114.0020 0013097 221.1955 202.6327 14.61660732922068

Live tracking on map

Real-time ground track for satellite SL-8 DEB.

In-orbit conjunctions

A list of the most updated potential collisions computed for object SL-8 DEB.

Target Orbit TCA Probability of collision Miss distance Type
THOR ABLESTAR DEB LEO 2024-11-11 07:23:52 0.0008316344 187.0 (m) DEBRIS

Associated space launch

Military communications satellite

SL-8 DEB was lifted into orbit during the mission ‘Kosmos-3M | Strela-2M 46’, on board a Kosmos-3M space rocket.

The launch took place on Jan. 26, 1989, 3:36 p.m. from 132/2.

For more information about the launch, click the button.

Launch to space Kosmos-3M | Strela-2M 46
Kosmos-3M | Strela-2M 46

Agency: N/A

Status: Launch Successful

Launch date: Jan. 26, 1989, 3:36 p.m. UTC

Rocket: Kosmos-3M

Launch pad: 132/2

Location: Plesetsk Cosmodrome, Russian Federation

...

Latest news about this satellite

There are no fresh news available about this satellite. Check back as we update our databases every day.


Newsletter sign-up

Weekly statistics, charts and insights to help you stay on top of the space industry.